Weather History for KAVK - March, 2014

Change the Weather History Date:

Monday, March 31, 2014

  Actual Average Record
Temperature  
Mean Temperature 63 °F -  
Max Temperature 73 °F 65 °F 93 °F (1956)
Min Temperature 51 °F 40 °F 26 °F (1964)
Degree Days  
Heating Degree Days 2    
Growing Degree Days 13 (Base 50)    
Moisture  
Dew Point 34 °F    
Average Humidity 33    
Maximum Humidity 59    
Minimum Humidity 15    
Precipitation  
Precipitation 0.00 in - - ()
Sea Level Pressure  
Sea Level Pressure 29.77 in    
Wind  
Wind Speed 22 mph (WNW)    
Max Wind Speed 33 mph    
Max Gust Speed 43 mph    
Visibility 10 miles    
Events      
Averages and records for this station are not official NWS values.
T = Trace of Precipitation, MM = Missing Value Source: NWS Daily Summary

Daily Weather History Graph

Daily Weather History Graph

Search for Another Location

Airport or City:

Trip Planner

Search our weather history database for the weather conditions in past years. The results will help you decide how hot, cold, wet, or windy it might be!

Date:

Astronomy

Mar. 31, 2014 Rise Set
Actual Time 7:21 AM CDT 7:56 PM CDT
Civil Twilight 6:55 AM CDT 8:22 PM CDT
Nautical Twilight 6:25 AM CDT 8:52 PM CDT
Astronomical Twilight 5:53 AM CDT 9:24 PM CDT
Moon 7:47 AM CDT (3/31) 9:14 PM CDT (3/31)
Length of Visible Light 13h 26m
Length of Day
12h 34m
New Moon, 1% of the Moon is Illuminated
Mar 31
New Moon
Apr 7
First Quarter
Apr 15
Full
Apr 22
Last Quarter
Apr 29
New

Hourly Weather History & Observations

Time (CDT) Temp. Dew Point Humidity Pressure Visibility Wind Dir Wind Speed Gust Speed Precip Events Conditions
12:15 AM 64.4 °F 35.6 °F 34% 29.70 in 10.0 mi South 26.5 mph 34.5 mph N/A   Overcast
12:35 AM 64.4 °F 37.4 °F 37% 29.70 in 10.0 mi South 24.2 mph 33.4 mph N/A   Mostly Cloudy
12:55 AM 64.4 °F 37.4 °F 37% 29.69 in 10.0 mi South 28.8 mph 35.7 mph N/A   Scattered Clouds
1:15 AM 64.4 °F 37.4 °F 37% 29.69 in 10.0 mi South 28.8 mph 34.5 mph N/A   Partly Cloudy
1:35 AM 64.4 °F 39.2 °F 40% 29.68 in 10.0 mi South 27.6 mph 32.2 mph N/A   Clear
1:55 AM 64.4 °F 39.2 °F 40% 29.67 in 10.0 mi South 28.8 mph 34.5 mph N/A   Clear
2:15 AM 64.4 °F 39.2 °F 40% 29.67 in 10.0 mi South 27.6 mph 38.0 mph N/A   Clear
2:35 AM 64.4 °F 39.2 °F 40% 29.66 in 10.0 mi South 27.6 mph 42.6 mph N/A   Clear
2:55 AM 64.4 °F 39.2 °F 40% 29.65 in 10.0 mi South 31.1 mph 39.1 mph N/A   Clear
3:15 AM 64.4 °F 41.0 °F 42% 29.64 in 10.0 mi SSW 32.2 mph 41.4 mph N/A   Clear
3:35 AM 64.4 °F 41.0 °F 42% 29.63 in 10.0 mi SSW 33.4 mph 41.4 mph N/A   Clear
3:55 AM 64.4 °F 41.0 °F 42% 29.63 in 10.0 mi SSW 32.2 mph 38.0 mph N/A   Clear
4:15 AM 64.4 °F 41.0 °F 42% 29.63 in 10.0 mi SSW 29.9 mph 39.1 mph N/A   Partly Cloudy
4:35 AM 64.4 °F 42.8 °F 45% 29.63 in 10.0 mi SSW 27.6 mph 38.0 mph N/A   Partly Cloudy
4:55 AM 64.4 °F 42.8 °F 45% 29.63 in 10.0 mi SSW 26.5 mph 35.7 mph N/A   Partly Cloudy
5:15 AM 62.6 °F 42.8 °F 48% 29.63 in 10.0 mi SSW 27.6 mph 35.7 mph N/A   Partly Cloudy
5:35 AM 62.6 °F 42.8 °F 48% 29.63 in 10.0 mi SSW 27.6 mph 33.4 mph N/A   Partly Cloudy
5:55 AM 62.6 °F 44.6 °F 52% 29.63 in 10.0 mi SSW 23.0 mph 32.2 mph N/A   Partly Cloudy
6:15 AM 62.6 °F 44.6 °F 52% 29.64 in 10.0 mi SSW 25.3 mph 29.9 mph N/A   Clear
6:35 AM 62.6 °F 44.6 °F 52% 29.64 in 10.0 mi SSW 25.3 mph 34.5 mph N/A   Clear
6:55 AM 62.6 °F 44.6 °F 52% 29.65 in 10.0 mi SW 21.9 mph 32.2 mph N/A   Clear
7:15 AM 62.6 °F 44.6 °F 52% 29.65 in 10.0 mi SSW 26.5 mph 34.5 mph N/A   Partly Cloudy
7:30 AM 59.0 °F 44.6 °F 59% 29.66 in 10.0 mi SW 20.7 mph 27.6 mph N/A   Clear
7:50 AM 59.0 °F 44.6 °F 59% 29.67 in 10.0 mi SW 20.7 mph 27.6 mph N/A   Clear
8:15 AM 59.0 °F 44.6 °F 59% 29.69 in 10.0 mi SW 19.6 mph 27.6 mph N/A   Clear
8:30 AM 60.8 °F 44.6 °F 55% 29.70 in 10.0 mi SW 20.7 mph 25.3 mph N/A   Clear
8:50 AM 62.6 °F 44.6 °F 52% 29.71 in 10.0 mi SW 18.4 mph 26.5 mph N/A   Clear
9:10 AM 64.4 °F 44.6 °F 49% 29.72 in 10.0 mi SW 19.6 mph 25.3 mph N/A   Clear
9:30 AM 64.4 °F 44.6 °F 49% 29.73 in 10.0 mi SW 19.6 mph - N/A   Clear
9:50 AM 66.2 °F 41.0 °F 40% 29.73 in 10.0 mi WSW 19.6 mph 25.3 mph N/A   Clear
10:10 AM 68.0 °F 35.6 °F 30% 29.74 in 10.0 mi West 17.3 mph 25.3 mph N/A   Clear
10:30 AM 71.6 °F 30.2 °F 22% 29.74 in 10.0 mi WNW 18.4 mph 24.2 mph N/A   Clear
10:50 AM 71.6 °F 24.8 °F 17% 29.74 in 10.0 mi WNW 17.3 mph 28.8 mph N/A   Clear
11:10 AM 71.6 °F 24.8 °F 17% 29.74 in 10.0 mi WNW 18.4 mph 25.3 mph N/A   Clear
11:30 AM 71.6 °F 23.0 °F 16% 29.74 in 10.0 mi NW 25.3 mph 29.9 mph N/A   Clear
11:50 AM 73.4 °F 23.0 °F 15% 29.75 in 10.0 mi WNW 18.4 mph 29.9 mph N/A   Clear
12:10 PM 73.4 °F 24.8 °F 16% 29.75 in 10.0 mi NW 18.4 mph 29.9 mph N/A   Clear
12:35 PM 73.4 °F 24.8 °F 16% 29.75 in 10.0 mi West 20.7 mph 27.6 mph N/A   Clear
12:50 PM 73.4 °F 24.8 °F 16% 29.75 in 10.0 mi NW 24.2 mph 32.2 mph N/A   Clear
1:10 PM 73.4 °F 26.6 °F 18% 29.76 in 10.0 mi NW 17.3 mph 31.1 mph N/A   Clear
1:30 PM 73.4 °F 28.4 °F 19% 29.77 in 10.0 mi NW 17.3 mph 28.8 mph N/A   Clear
1:50 PM 73.4 °F 26.6 °F 18% 29.77 in 10.0 mi NNW 13.8 mph 23.0 mph N/A   Clear
2:10 PM 73.4 °F 30.2 °F 20% 29.78 in 10.0 mi North 11.5 mph 20.7 mph N/A   Clear
2:30 PM 73.4 °F 28.4 °F 19% 29.77 in 10.0 mi NNW 12.7 mph 24.2 mph N/A   Clear
2:50 PM 73.4 °F 32.0 °F 22% 29.78 in 10.0 mi NW 9.2 mph 18.4 mph N/A   Clear
3:10 PM 73.4 °F 32.0 °F 22% 29.78 in 10.0 mi NNW 17.3 mph 20.7 mph N/A   Clear
3:30 PM 73.4 °F 32.0 °F 22% 29.79 in 10.0 mi North 17.3 mph 21.9 mph N/A   Clear
3:50 PM 73.4 °F 32.0 °F 22% 29.79 in 10.0 mi NW 15.0 mph 23.0 mph N/A   Clear
4:10 PM 73.4 °F 32.0 °F 22% 29.80 in 10.0 mi NNW 11.5 mph 20.7 mph N/A   Clear
4:30 PM 73.4 °F 32.0 °F 22% 29.81 in 10.0 mi North 18.4 mph 21.9 mph N/A   Clear
4:50 PM 73.4 °F 32.0 °F 22% 29.81 in 10.0 mi NNW 9.2 mph 19.6 mph N/A   Clear
5:15 PM 73.4 °F 32.0 °F 22% 29.81 in 10.0 mi North 12.7 mph 23.0 mph N/A   Clear
5:35 PM 73.4 °F 32.0 °F 22% 29.82 in 10.0 mi NW 11.5 mph - N/A   Clear
5:55 PM 71.6 °F 32.0 °F 23% 29.83 in 10.0 mi NNW 12.7 mph 19.6 mph N/A   Clear
6:15 PM 71.6 °F 32.0 °F 23% 29.84 in 10.0 mi North 10.4 mph - N/A   Clear
6:35 PM 71.6 °F 32.0 °F 23% 29.84 in 10.0 mi North 11.5 mph - N/A   Clear
6:55 PM 69.8 °F 32.0 °F 25% 29.84 in 10.0 mi NNW 8.1 mph - N/A   Clear
7:15 PM 68.0 °F 32.0 °F 26% 29.85 in 10.0 mi North 8.1 mph - N/A   Clear
7:35 PM 66.2 °F 32.0 °F 28% 29.86 in 10.0 mi NNE 8.1 mph - N/A   Clear
7:55 PM 64.4 °F 28.4 °F 26% 29.87 in 10.0 mi NNE 8.1 mph - N/A   Clear
8:15 PM 64.4 °F 30.2 °F 28% 29.88 in 10.0 mi NNE 11.5 mph - N/A   Clear
8:35 PM 62.6 °F 28.4 °F 27% 29.89 in 10.0 mi ENE 8.1 mph - N/A   Partly Cloudy
8:55 PM 59.0 °F 28.4 °F 31% 29.91 in 10.0 mi NNE 13.8 mph - N/A   Partly Cloudy
9:15 PM 59.0 °F 26.6 °F 29% 29.94 in 10.0 mi North 15.0 mph 34.5 mph N/A   Mostly Cloudy
9:35 PM 59.0 °F 26.6 °F 29% 29.96 in 8.0 mi NNE 18.4 mph 24.2 mph N/A   Overcast
9:50 PM 57.2 °F 26.6 °F 31% 29.97 in 8.0 mi NNE 18.4 mph 28.8 mph N/A   Overcast
10:10 PM 57.2 °F 26.6 °F 31% 29.98 in 9.0 mi NNE 16.1 mph 21.9 mph N/A   Overcast
10:30 PM 55.4 °F 26.6 °F 33% 29.99 in 9.0 mi NNE 17.3 mph 24.2 mph N/A   Overcast
10:50 PM 53.6 °F 24.8 °F 33% 30.00 in 10.0 mi NNE 15.0 mph 24.2 mph N/A   Overcast
11:10 PM 53.6 °F 24.8 °F 33% 30.00 in 10.0 mi NNE 19.6 mph 23.0 mph N/A   Overcast
11:30 PM 53.6 °F 24.8 °F 33% 30.01 in 10.0 mi NNE 18.4 mph 24.2 mph N/A   Overcast
11:50 PM 51.8 °F 24.8 °F 35% 30.02 in 10.0 mi NNE 17.3 mph - N/A   Overcast